Regional Weather Roundup
Issued by NWS

Home | Current Version | Previous Version | Text Only | Print | Product List | Glossary On
Versions: 1 2 3 4 5 6 7 8 9 10 11 12 13 14 15 16 17 18 19 20 21 22 23 24 25 26 27 28 29 30 31 32 33 34 35 36 37 38 39 40 41 42 43 44 45 46 47 48 49 50
875
ASUS43 KDTX 240201
RWRMI
MICHIGAN HOURLY REGIONAL WEATHER ROUNDUP
NATIONAL WEATHER SERVICE DETROIT/PONTIAC MI
1000 PM EDT WED MAY 23 2018

NOTE: "FAIR" INDICATES FEW OR NO CLOUDS BELOW 12,000 FEET WITH NO
SIGNIFICANT WEATHER AND/OR OBSTRUCTION TO VISIBILITY.

MIZ047>049-052>055-059>063-066>070-074>076-081>083-240300-
SOUTHEAST LOWER MICHIGAN

CITY           SKY/WX    TMP DP  RH WIND       PRES   REMARKS
ADRIAN         FAIR      66  55  67 W3        30.18R
ALMA           FAIR      64  55  73 W5        30.18R
ANN ARBOR      FAIR      59  54  83 CALM      30.17R
BAD AXE        FAIR      59  51  74 SE3       30.17R
CARO           FAIR      60  53  78 CALM      30.16R
DETROIT CITY   FAIR      68  53  58 SE3       30.17R
DETROIT        MOCLDY    68  51  54 SE3       30.17R
FLINT          FAIR      65  48  54 CALM      30.16S
GROSSE ILE     FAIR      61  56  84 S3        30.17R
HILLSDALE      FAIR      63  52  67 CALM      30.18S
HOWELL         FAIR      63  52  67 CALM      30.17S

CITY           SKY/WX    TMP DP  RH WIND       PRES   REMARKS
JACKSON        FAIR      62  52  69 SW3       30.18R
LAMBERTVILLE   FAIR      65  54  67 CALM      30.17R
LANSING        FAIR      64  56  75 CALM      30.18R
LAPEER         FAIR      58  49  73 CALM      30.18R
MASON          FAIR      64  58  79 CALM      30.18R
MONROE         FAIR      64  57  77 E7        30.17R
MT. CLEMENS    PTCLDY    64  60  87 S3        30.15S
PONTIAC        CLOUDY    69  52  54 SE6       30.16R
PORT HOPE        N/A     57  49  74 CALM      30.15R
PORT HURON     FAIR      52  46  82 CALM      30.18S
TRI CITIES     FAIR      72  51  47 SW6       30.16R
MIDLAND        FAIR      69  53  55 SW5       30.14S
TROY           FAIR      71  52  50 S5        30.19R
SAGINAW HB     FAIR      66  48  52 SW5       30.15R
$$
MIZ043>046-050>051-056>058-064>065-071>073-077>080-240300-
SOUTHWEST LOWER MICHIGAN

CITY           SKY/WX    TMP DP  RH WIND       PRES   REMARKS
BATTLE CREEK   FAIR      65  50  58 NW5       30.19R
BENTON HARBOR  FAIR      59  53  80 CALM      30.18R
BIG RAPIDS     FAIR      64  53  67 CALM      30.18R
COLDWATER      FAIR      63  54  71 CALM      30.18R
HOLLAND        FAIR      61  57  87 CALM      30.18R
GRAND RAPIDS   MOCLDY    69  54  58 N3        30.18R
IONIA          FAIR      68  54  60 CALM      30.17R
KALAMAZOO      FAIR      66  55  67 CALM      30.18R
LUDINGTON      FAIR      58  56  95 CALM      30.17S
MARSHALL       FAIR      65  50  58 CALM      30.17S
MOUNT PLEASANT FAIR      70  56  61 SW5       30.16R
MUSKEGON       MOCLDY    58  55  90 SW3       30.18R
SOUTH HAVEN    FAIR      58  54  84 CALM      30.18S
$$
MIZ016>042-240300-
NORTHERN LOWER MICHIGAN

CITY           SKY/WX    TMP DP  RH WIND       PRES   REMARKS
ALPENA         FAIR      62  47  57 CALM      30.15R
BEAVER ISLAND  FOG       47  46  95 CALM      30.16R VSB 1/2
BELLAIRE       FAIR      58  56  91 CALM      30.16R
CADILLAC       FAIR      60  43  53 CALM      30.17S
CHARLEVOIX     FAIR      45  45 100 CALM      30.19S
FRANKFORT      FAIR      57  56  95 CALM      30.16S
GAYLORD        FAIR      66  48  52 CALM      30.17R
GRAYLING       FAIR      65  52  60 W6        30.15S
HARBOR SPRINGS FOG       45  45  99 CALM      30.16S VSB 1/4
HOUGHTON LAKE  FAIR      68  52  56 NW5       30.17R
MANISTEE       FAIR      58  53  84 CALM      30.16R
OSCODA         FAIR      62  38  40 CALM      30.15R
PELLSTON       FAIR      59  53  80 NW6       30.15R
ROGERS CITY    FAIR      58  46  63 CALM      30.15S
TRAVERSE CITY  FAIR      54  50  86 SE3       30.15R
$$
MIZ007>008-015-240300-
EASTERN UPPER MICHIGAN

CITY           SKY/WX    TMP DP  RH WIND       PRES   REMARKS
KINROSS        FAIR      68  44  42 SW5       30.14R
MACKINAC ISLAN CLOUDY    47  47 100 W7        30.15R FOG
NEWBERRY       FAIR      62  54  75 SW7       30.13S
S. S. MARIE    FAIR      62  48  60 W3        30.12R
$$
MIZ004>006-011>014-085-240300-
CENTRAL UPPER MICHIGAN

CITY           SKY/WX    TMP DP  RH WIND       PRES   REMARKS
MANISTIQUE     FOG       47  46  93 S3        30.14R VSB 1/4
ESCANABA       FAIR      56  52  86 E5        30.13R
MENOMINEE      FAIR      65  56  72 S6        30.13
SAWYER-GWINN   CLEAR     64  48  55 CALM      30.14R
$$
MIZ001>003-009>011-084-240300-
WESTERN UPPER MICHIGAN

CITY           SKY/WX    TMP DP  RH WIND       PRES   REMARKS
IRON MOUNTAIN  FAIR      71  51  49 SE6       30.10S
HOUGHTON       FAIR      56  47  71 E3        30.11R
COPPER HARBOR    N/A     59  46  62 SW10G18   30.08S
IRONWOOD       FAIR      66  58  75 CALM      30.11R
$$

ABBREVIATIONS USED IN REMARKS
   TC - TEMPERATURE IN CELSIUS
  WCI - WIND CHILL INDEX
   HX - HEAT INDEX
  VSB - VISIBILITY





USA.gov is the U.S. government's official web portal to all federal, state and local government web resources and services.